[ ตารางข้อมูล ] [ Min-Max ] [ วันนี้2 ] [ วันนี้4 ] [ เทียบ-A 3วัน ] [ เทียบ-B 4วัน ]   

วันนี้2   [ ◀ ช่วงเก่ากว่า ] [ ช่วงที่ 20 ] [ ช่วงใหม่กว่า ▶ ] [ ล่าสุด ]    [ 3 ชั่วโมง ] [ 6 ชั่วโมง ] [ 12 ชั่วโมง ] [ 24 ชั่วโมง ]   วันนี้2

อุณภูมิในตู้ Knockdown4529  ราย 12 ชั่วโมง  ที่วัดได้ ในช่วงวันเวลา 21/08/2026 (08:04) ถึง 21/08/2026 (20:04) 
ความชื้นในตู้ Knockdown4529  ราย 12 ชั่วโมง  ที่วัดได้ ในช่วงวันเวลา 21/08/2026 (08:04) ถึง 21/08/2026 (20:04) 
การใช้ไฟฟ้าในตู้ Knockdown4529  ราย 12 ชั่วโมง  ที่วัดได้ ในช่วงวันเวลา 21/08/2026 (08:04) ถึง 21/08/2026 (20:04) 

  DS18B20SHTC3PZEM-004TWiFi 
IDDate d/m/Y & Timedata1
สูง
data2
ต่ำ
data3
นอก
temp
pcb
hum
pcb
VoltAmpWattrssiTime
 14747  21/08/2026 20:00:48  32.4  32.6  30.6  33.6  66.8  226.7  0.04  4.6  -77  20:00 
 14746  21/08/2026 19:56:04  32.4  32.7  30.5  33.5  66.6  226.5  0.04  4.6  -75  19:56 
 14745  21/08/2026 19:51:21  32.5  32.7  30.7  33.5  66.6  225.5  0.04  4.6  -76  19:51 
 14744  21/08/2026 19:46:38  32.6  32.8  30.8  33.6  66.5  226.6  0.04  4.6  -75  19:46 
 14743  21/08/2026 19:41:54  32.6  32.8  30.9  33.6  66.1  226.6  0.04  4.6  -76  19:41 
 14742  21/08/2026 19:37:11  32.6  32.8  31.0  33.8  66.3  226.6  0.04  4.6  -74  19:37 
 14741  21/08/2026 19:32:27  32.7  32.9  31.0  33.6  66.0  226.1  0.04  4.6  -76  19:32 
 14740  21/08/2026 19:27:44  32.8  32.9  31.0  33.8  65.9  225.8  0.04  4.6  -77  19:27 
 14739  21/08/2026 19:23:01  32.8  32.9  31.0  34.0  65.8  226.8  0.04  4.6  -76  19:23 
 14738  21/08/2026 19:18:17  32.9  32.9  31.2  33.9  65.5  226.4  0.04  4.6  -77  19:18 
 14737  21/08/2026 19:13:34  33.0  33.0  31.1  34.1  65.6  226.7  0.04  4.6  -77  19:13 
 14736  21/08/2026 19:08:51  33.0  33.0  31.0  33.9  65.6  226.5  0.04  4.6  -78  19:08 
 14735  21/08/2026 19:04:08  33.1  33.1  31.1  34.1  65.5  227.0  0.04  4.6  -77  19:04 
 14734  21/08/2026 18:59:24  33.1  33.1  31.2  34.0  65.4  227.6  0.04  4.6  -75  18:59 
 14733  21/08/2026 18:54:41  33.2  33.1  31.4  34.0  65.3  227.6  0.04  4.6  -74  18:54 
 14732  21/08/2026 18:49:58  33.2  33.2  31.4  34.2  65.3  227.3  0.04  4.6  -77  18:49 
 14731  21/08/2026 18:45:14  33.3  33.2  31.5  34.2  65.0  225.5  0.04  4.6  -77  18:45 
 14730  21/08/2026 18:40:31  33.4  33.2  31.6  34.4  64.8  226.8  0.04  4.6  -76  18:40 
 14729  21/08/2026 18:35:47  33.4  33.3  31.7  34.5  64.9  229.6  0.04  4.5  -77  18:35 
 14728  21/08/2026 18:31:03  33.5  33.3  31.7  34.5  64.8  228.6  0.04  4.5  -75  18:31 
 14727  21/08/2026 18:26:20  33.6  33.4  31.9  34.6  64.7  229.7  0.04  4.5  -76  18:26 
 14726  21/08/2026 18:21:36  33.6  33.4  32.0  34.6  64.7  229.0  0.04  4.5  -77  18:21 
 14725  21/08/2026 18:16:52  33.7  33.4  32.0  34.6  64.6  230.1  0.04  4.5  -76  18:16 
 14724  21/08/2026 18:12:09  33.7  33.4  32.3  34.6  64.5  229.8  0.04  4.6  -78  18:12 

Data every 5 minute.


ใช้เวลาประมวลผล 0.04421 วินาที